Time,TemperatureF,DewpointF,PressureIn,WindDirection,WindDirectionDegrees,WindSpeedMPH,WindSpeedGustMPH,Humidity,HourlyPrecipIn,Conditions,Clouds,dailyrainin,SoftwareType,DateUTC
2016-07-29 00:03:00,73.2,45.4,29.97,NE,45,3.3,4.6,37,0.00,CLR,,0.00,WeatherDisplay:10.37,2016-07-29 04:03:00,
2016-07-29 00:08:00,73.2,45.4,29.97,NE,45,1.4,2.3,37,0.00,CLR,,0.00,WeatherDisplay:10.37,2016-07-29 04:08:00,
2016-07-29 00:13:00,73.4,45.5,29.97,NE,45,2.2,2.3,37,0.00,CLR,,0.00,WeatherDisplay:10.37,2016-07-29 04:13:00,
2016-07-29 00:18:00,73.4,45.5,29.97,NE,45,2.0,2.4,37,0.00,CLR,,0.00,WeatherDisplay:10.37,2016-07-29 04:18:00,
2016-07-29 00:23:00,73.6,45.7,29.97,NE,45,2.0,2.9,37,0.00,CLR,,0.00,WeatherDisplay:10.37,2016-07-29 04:23:00,
2016-07-29 00:28:00,73.6,45.0,29.94,ENE,68,3.1,3.6,36,0.00,CLR,,0.00,WeatherDisplay:10.37,2016-07-29 04:28:00,
2016-07-29 00:33:00,73.4,44.1,29.94,NE,45,4.0,5.8,35,0.00,CLR,,0.00,WeatherDisplay:10.37,2016-07-29 04:33:00,
2016-07-29 00:38:00,73.4,44.1,29.94,ENE,68,3.8,4.6,35,0.00,CLR,,0.00,WeatherDisplay:10.37,2016-07-29 04:38:00,
2016-07-29 00:43:00,73.4,43.3,29.94,ENE,68,4.5,5.8,34,0.00,CLR,,0.00,WeatherDisplay:10.37,2016-07-29 04:43:00,
2016-07-29 00:48:00,73.4,42.5,29.94,ENE,68,3.6,5.8,33,0.00,CLR,,0.00,WeatherDisplay:10.37,2016-07-29 04:48:00,
2016-07-29 00:53:00,73.4,42.5,29.94,NE,45,3.3,4.6,33,0.00,CLR,,0.00,WeatherDisplay:10.37,2016-07-29 04:53:00,
2016-07-29 00:58:00,73.4,41.7,29.94,NE,45,3.8,4.7,32,0.00,CLR,,0.00,WeatherDisplay:10.37,2016-07-29 04:58:00,
2016-07-29 01:03:00,73.4,41.7,29.94,NE,45,4.3,6.9,32,0.00,CLR,,0.00,WeatherDisplay:10.37,2016-07-29 05:03:00,
2016-07-29 01:08:00,73.4,40.9,29.94,ENE,68,4.0,5.8,31,0.00,CLR,,0.00,WeatherDisplay:10.37,2016-07-29 05:08:00,
2016-07-29 01:13:00,73.4,40.9,29.94,NE,45,4.3,6.2,31,0.00,CLR,,0.00,WeatherDisplay:10.37,2016-07-29 05:13:00,
2016-07-29 01:18:00,73.2,40.8,29.94,NNE,22,3.1,3.5,31,0.00,CLR,,0.00,WeatherDisplay:10.37,2016-07-29 05:18:00,
2016-07-29 01:23:00,73.2,40.8,29.94,NE,45,3.1,3.6,31,0.00,CLR,,0.00,WeatherDisplay:10.37,2016-07-29 05:23:00,
2016-07-29 01:28:00,73.2,40.8,29.94,NE,45,2.6,3.5,31,0.00,CLR,,0.00,WeatherDisplay:10.37,2016-07-29 05:28:00,
2016-07-29 01:33:00,73.2,40.8,29.94,NNE,22,2.4,2.4,31,0.00,CLR,,0.00,WeatherDisplay:10.37,2016-07-29 05:33:00,
2016-07-29 01:38:00,73.0,40.6,29.94,NNE,22,2.2,2.4,31,0.00,CLR,,0.00,WeatherDisplay:10.37,2016-07-29 05:38:00,
2016-07-29 01:43:00,73.0,40.6,29.94,NE,45,3.1,4.6,31,0.00,CLR,,0.00,WeatherDisplay:10.37,2016-07-29 05:43:00,
2016-07-29 01:48:00,72.9,40.4,29.94,NE,45,3.1,3.5,31,0.00,CLR,,0.00,WeatherDisplay:10.37,2016-07-29 05:48:00,
2016-07-29 01:53:00,72.9,40.4,29.94,NE,45,3.1,4.6,31,0.00,CLR,,0.00,WeatherDisplay:10.37,2016-07-29 05:53:00,
2016-07-29 01:58:00,72.9,40.4,29.94,ENE,68,3.1,3.5,31,0.00,CLR,,0.00,WeatherDisplay:10.37,2016-07-29 05:58:00,
2016-07-29 02:03:00,72.7,39.4,29.94,ENE,68,3.1,4.6,30,0.00,CLR,,0.00,WeatherDisplay:10.37,2016-07-29 06:03:00,
2016-07-29 02:08:00,72.7,38.6,29.94,ENE,68,3.3,5.8,29,0.00,CLR,,0.00,WeatherDisplay:10.37,2016-07-29 06:08:00,
2016-07-29 02:13:00,72.7,38.6,29.94,ENE,68,2.9,4.6,29,0.00,CLR,,0.00,WeatherDisplay:10.37,2016-07-29 06:13:00,
2016-07-29 02:18:00,72.7,37.7,29.94,ENE,68,1.4,3.5,28,0.00,CLR,,0.00,WeatherDisplay:10.37,2016-07-29 06:18:00,
2016-07-29 02:23:00,72.7,37.7,29.94,ENE,68,1.6,3.8,28,0.00,CLR,,0.00,WeatherDisplay:10.37,2016-07-29 06:23:00,
2016-07-29 02:28:00,72.5,37.5,29.94,NNE,22,2.0,2.4,28,0.00,CLR,,0.00,WeatherDisplay:10.37,2016-07-29 06:28:00,
2016-07-29 02:33:00,72.5,37.5,29.94,NE,45,2.9,3.5,28,0.00,CLR,,0.00,WeatherDisplay:10.37,2016-07-29 06:33:00,
2016-07-29 02:38:00,72.3,36.4,29.94,ENE,68,2.6,3.5,27,0.00,CLR,,0.00,WeatherDisplay:10.37,2016-07-29 06:38:00,
2016-07-29 02:43:00,72.3,36.4,29.94,NE,45,2.4,3.5,27,0.00,CLR,,0.00,WeatherDisplay:10.37,2016-07-29 06:43:00,
2016-07-29 02:48:00,72.1,37.2,29.94,NNE,22,0.9,1.2,28,0.00,CLR,,0.00,WeatherDisplay:10.37,2016-07-29 06:48:00,
2016-07-29 02:53:00,72.0,36.1,29.94,NE,45,2.4,3.5,27,0.00,CLR,,0.00,WeatherDisplay:10.37,2016-07-29 06:53:00,
2016-07-29 02:58:00,72.0,36.1,29.94,NE,45,3.3,4.6,27,0.00,CLR,,0.00,WeatherDisplay:10.37,2016-07-29 06:58:00,
2016-07-29 03:03:00,71.8,36.9,29.94,NE,45,3.1,4.6,28,0.00,CLR,,0.00,WeatherDisplay:10.37,2016-07-29 07:03:00,
2016-07-29 03:08:00,71.6,36.8,29.94,NE,45,1.6,3.5,28,0.00,CLR,,0.00,WeatherDisplay:10.37,2016-07-29 07:08:00,
2016-07-29 03:13:00,71.6,36.8,29.94,NNE,22,2.9,2.9,28,0.00,CLR,,0.00,WeatherDisplay:10.37,2016-07-29 07:13:00,
2016-07-29 03:18:00,71.4,37.5,29.94,NNE,22,2.6,4.6,29,0.00,CLR,,0.00,WeatherDisplay:10.37,2016-07-29 07:18:00,
2016-07-29 03:23:00,71.2,37.3,29.94,NE,45,2.2,3.5,29,0.00,CLR,,0.00,WeatherDisplay:10.37,2016-07-29 07:23:00,
2016-07-29 03:28:00,71.1,38.0,29.94,NE,45,3.3,4.6,30,0.00,CLR,,0.00,WeatherDisplay:10.37,2016-07-29 07:28:00,
2016-07-29 03:33:00,71.1,38.0,29.94,NE,45,3.1,4.0,30,0.00,CLR,,0.00,WeatherDisplay:10.37,2016-07-29 07:33:00,
2016-07-29 03:38:00,70.9,38.7,29.94,NNE,22,2.9,3.5,31,0.00,CLR,,0.00,WeatherDisplay:10.37,2016-07-29 07:38:00,
2016-07-29 03:43:00,70.7,38.6,29.94,NNE,22,3.3,3.5,31,0.00,CLR,,0.00,WeatherDisplay:10.37,2016-07-29 07:43:00,
2016-07-29 03:48:00,70.5,39.2,29.94,NNE,22,2.6,3.5,32,0.00,CLR,,0.00,WeatherDisplay:10.37,2016-07-29 07:48:00,
2016-07-29 03:53:00,70.3,39.1,29.94,North,0,1.4,2.3,32,0.00,CLR,,0.00,WeatherDisplay:10.37,2016-07-29 07:53:00,
2016-07-29 03:58:00,70.3,39.1,29.94,North,0,0.0,0.0,32,0.00,CLR,,0.00,WeatherDisplay:10.37,2016-07-29 07:58:00,
2016-07-29 04:03:00,70.3,39.1,29.94,North,0,0.0,0.0,32,0.00,CLR,,0.00,WeatherDisplay:10.37,2016-07-29 08:03:00,
2016-07-29 04:08:00,70.3,39.1,29.94,NNE,22,2.0,2.3,32,0.00,CLR,,0.00,WeatherDisplay:10.37,2016-07-29 08:08:00,
2016-07-29 04:13:00,70.3,39.1,29.94,NNE,22,1.4,2.3,32,0.00,CLR,,0.00,WeatherDisplay:10.37,2016-07-29 08:13:00,
2016-07-29 04:18:00,70.2,38.9,29.94,NNE,22,1.6,2.3,32,0.00,CLR,,0.00,WeatherDisplay:10.37,2016-07-29 08:18:00,
2016-07-29 04:23:00,70.2,38.9,29.94,NNE,22,0.9,1.4,32,0.00,CLR,,0.00,WeatherDisplay:10.37,2016-07-29 08:23:00,
2016-07-29 04:28:00,70.2,38.9,29.91,NNE,22,2.2,2.3,32,0.00,CLR,,0.00,WeatherDisplay:10.37,2016-07-29 08:28:00,
2016-07-29 04:33:00,70.2,38.9,29.91,NNE,22,2.2,3.5,32,0.00,CLR,,0.00,WeatherDisplay:10.37,2016-07-29 08:33:00,
2016-07-29 04:38:00,70.0,38.8,29.91,NNE,22,2.2,2.4,32,0.00,CLR,,0.00,WeatherDisplay:10.37,2016-07-29 08:38:00,
2016-07-29 04:43:00,69.8,38.6,29.94,NNE,22,2.9,2.9,32,0.00,CLR,,0.00,WeatherDisplay:10.37,2016-07-29 08:43:00,
2016-07-29 04:48:00,69.6,39.2,29.94,NNE,22,2.4,2.9,33,0.00,CLR,,0.00,WeatherDisplay:10.37,2016-07-29 08:48:00,
2016-07-29 04:53:00,69.4,39.1,29.94,NNW,338,3.1,3.5,33,0.00,CLR,,0.00,WeatherDisplay:10.37,2016-07-29 08:53:00,
2016-07-29 04:58:00,69.3,38.9,29.94,NNW,338,2.6,2.9,33,0.00,CLR,,0.00,WeatherDisplay:10.37,2016-07-29 08:58:00,
2016-07-29 05:03:00,69.3,38.9,29.94,NNW,338,2.9,3.5,33,0.00,CLR,,0.00,WeatherDisplay:10.37,2016-07-29 09:03:00,
2016-07-29 05:08:00,69.1,39.5,29.94,North,0,2.9,3.5,34,0.00,CLR,,0.00,WeatherDisplay:10.37,2016-07-29 09:08:00,
2016-07-29 05:13:00,69.1,39.5,29.94,North,0,3.1,3.6,34,0.00,CLR,,0.00,WeatherDisplay:10.37,2016-07-29 09:13:00,
2016-07-29 05:18:00,68.9,39.4,29.94,NNE,22,3.6,3.6,34,0.00,CLR,,0.00,WeatherDisplay:10.37,2016-07-29 09:18:00,
2016-07-29 05:23:00,68.9,39.4,29.94,NNE,22,3.1,4.6,34,0.00,CLR,,0.00,WeatherDisplay:10.37,2016-07-29 09:23:00,
2016-07-29 05:28:00,68.7,39.2,29.94,NNE,22,3.3,4.6,34,0.00,CLR,,0.00,WeatherDisplay:10.37,2016-07-29 09:28:00,
2016-07-29 05:33:00,68.7,39.2,29.94,North,0,3.1,3.5,34,0.00,CLR,,0.00,WeatherDisplay:10.37,2016-07-29 09:33:00,
2016-07-29 05:38:00,68.7,39.9,29.94,NNE,22,3.3,4.6,35,0.00,CLR,,0.00,WeatherDisplay:10.37,2016-07-29 09:38:00,
2016-07-29 05:43:00,68.7,39.9,29.94,NE,45,3.3,4.6,35,0.00,CLR,,0.00,WeatherDisplay:10.37,2016-07-29 09:43:00,
2016-07-29 05:48:00,68.7,39.9,29.94,North,0,2.6,3.5,35,0.00,CLR,,0.00,WeatherDisplay:10.37,2016-07-29 09:48:00,
2016-07-29 05:53:00,68.7,39.9,29.94,NE,45,2.6,3.5,35,0.00,CLR,,0.00,WeatherDisplay:10.37,2016-07-29 09:53:00,
2016-07-29 05:58:00,68.7,40.7,29.94,NNE,22,2.2,3.5,36,0.00,CLR,,0.00,WeatherDisplay:10.37,2016-07-29 09:58:00,
2016-07-29 06:03:00,68.7,40.7,29.94,NNE,22,2.0,3.3,36,0.00,CLR,,0.00,WeatherDisplay:10.37,2016-07-29 10:03:00,
2016-07-29 06:08:00,68.5,40.5,29.97,NNE,22,2.4,3.5,36,0.00,CLR,,0.00,WeatherDisplay:10.37,2016-07-29 10:08:00,
2016-07-29 06:13:00,68.5,40.5,29.97,NE,45,2.9,4.6,36,0.00,CLR,,0.00,WeatherDisplay:10.37,2016-07-29 10:13:00,
2016-07-29 06:18:00,68.4,41.1,29.97,NNE,22,2.6,3.5,37,0.00,CLR,,0.00,WeatherDisplay:10.37,2016-07-29 10:18:00,
2016-07-29 06:23:00,68.4,41.1,29.94,NNE,22,4.0,5.8,37,0.00,CLR,,0.00,WeatherDisplay:10.37,2016-07-29 10:23:00,
2016-07-29 06:29:00,68.4,41.1,29.94,NNE,22,3.1,4.6,37,0.00,CLR,,0.00,WeatherDisplay:10.37,2016-07-29 10:29:00,
2016-07-29 06:34:00,68.4,41.1,29.94,NE,45,2.2,3.5,37,0.00,CLR,,0.00,WeatherDisplay:10.37,2016-07-29 10:34:00,
2016-07-29 06:39:00,68.4,41.8,29.94,NNE,22,2.4,3.5,38,0.00,CLR,,0.00,WeatherDisplay:10.37,2016-07-29 10:39:00,
2016-07-29 06:44:00,68.4,41.8,29.94,NNE,22,2.4,3.5,38,0.00,CLR,,0.00,WeatherDisplay:10.37,2016-07-29 10:44:00,
2016-07-29 06:49:00,68.4,41.8,29.94,NNE,22,1.6,2.3,38,0.00,CLR,,0.00,WeatherDisplay:10.37,2016-07-29 10:49:00,
2016-07-29 06:54:00,68.4,42.4,29.97,NNE,22,2.0,2.3,39,0.00,CLR,,0.00,WeatherDisplay:10.37,2016-07-29 10:54:00,
2016-07-29 06:59:00,68.7,42.8,29.97,NE,45,2.9,3.5,39,0.00,CLR,,0.00,WeatherDisplay:10.37,2016-07-29 10:59:00,
2016-07-29 07:04:00,69.3,43.2,29.97,NE,45,2.4,3.5,39,0.00,CLR,,0.00,WeatherDisplay:10.37,2016-07-29 11:04:00,
2016-07-29 07:09:00,69.6,43.6,29.94,NE,45,1.6,3.5,39,0.00,CLR,,0.00,WeatherDisplay:10.37,2016-07-29 11:09:00,
2016-07-29 07:14:00,70.2,44.0,29.94,NE,45,2.9,3.5,39,0.00,CLR,,0.00,WeatherDisplay:10.37,2016-07-29 11:14:00,
2016-07-29 07:19:00,70.9,44.7,29.94,NE,45,1.4,2.3,39,0.00,CLR,,0.00,WeatherDisplay:10.37,2016-07-29 11:19:00,
2016-07-29 07:24:00,71.6,44.6,29.97,NNE,22,2.6,4.6,38,0.00,CLR,,0.00,WeatherDisplay:10.37,2016-07-29 11:24:00,
2016-07-29 07:29:00,71.8,44.1,29.97,ENE,68,2.4,3.5,37,0.00,CLR,,0.00,WeatherDisplay:10.37,2016-07-29 11:29:00,
2016-07-29 07:34:00,72.0,44.3,29.97,ENE,68,2.9,4.7,37,0.00,CLR,,0.00,WeatherDisplay:10.37,2016-07-29 11:34:00,
2016-07-29 07:39:00,72.0,44.3,29.97,NE,45,3.8,4.6,37,0.00,CLR,,0.00,WeatherDisplay:10.37,2016-07-29 11:39:00,
2016-07-29 07:44:00,71.8,44.1,29.97,ENE,68,2.4,4.6,37,0.00,CLR,,0.00,WeatherDisplay:10.37,2016-07-29 11:44:00,
2016-07-29 07:49:00,71.8,44.1,29.97,NNE,22,3.1,4.6,37,0.00,CLR,,0.00,WeatherDisplay:10.37,2016-07-29 11:49:00,
2016-07-29 07:54:00,71.6,43.9,29.97,North,0,3.3,4.6,37,0.00,CLR,,0.00,WeatherDisplay:10.37,2016-07-29 11:54:00,
2016-07-29 07:59:00,71.4,43.8,29.97,North,0,2.9,3.5,37,0.00,CLR,,0.00,WeatherDisplay:10.37,2016-07-29 11:59:00,
2016-07-29 08:04:00,71.4,44.5,29.97,NW,315,1.6,3.5,38,0.00,CLR,,0.00,WeatherDisplay:10.37,2016-07-29 12:04:00,
2016-07-29 08:09:00,71.2,44.3,30.00,NNW,338,2.2,2.3,38,0.00,CLR,,0.00,WeatherDisplay:10.37,2016-07-29 12:09:00,
2016-07-29 08:14:00,71.2,44.3,30.00,NE,45,2.4,2.4,38,0.00,CLR,,0.00,WeatherDisplay:10.37,2016-07-29 12:14:00,
2016-07-29 08:19:00,71.4,44.5,30.00,NNE,22,2.9,3.5,38,0.00,CLR,,0.00,WeatherDisplay:10.37,2016-07-29 12:19:00,
2016-07-29 08:24:00,71.6,44.6,29.97,NNE,22,4.0,5.8,38,0.00,CLR,,0.00,WeatherDisplay:10.37,2016-07-29 12:24:00,
2016-07-29 08:29:00,71.4,44.5,29.97,NNE,22,3.1,3.5,38,0.00,CLR,,0.00,WeatherDisplay:10.37,2016-07-29 12:29:00,
2016-07-29 08:34:00,71.6,44.6,29.97,NE,45,2.4,3.5,38,0.00,CLR,,0.00,WeatherDisplay:10.37,2016-07-29 12:34:00,
2016-07-29 08:39:00,71.8,44.8,30.00,NNE,22,2.0,3.5,38,0.00,CLR,,0.00,WeatherDisplay:10.37,2016-07-29 12:39:00,
2016-07-29 08:44:00,71.8,44.8,30.00,NNE,22,2.9,3.8,38,0.00,CLR,,0.00,WeatherDisplay:10.37,2016-07-29 12:44:00,
2016-07-29 08:49:00,72.0,45.0,30.00,ENE,68,4.0,5.8,38,0.00,CLR,,0.00,WeatherDisplay:10.37,2016-07-29 12:49:00,
2016-07-29 08:54:00,72.3,45.3,30.00,NE,45,4.3,5.8,38,0.00,CLR,,0.00,WeatherDisplay:10.37,2016-07-29 12:54:00,
2016-07-29 08:59:00,72.5,45.4,30.00,NE,45,2.6,3.5,38,0.00,CLR,,0.00,WeatherDisplay:10.37,2016-07-29 12:59:00,
2016-07-29 09:04:00,72.7,44.9,30.00,ENE,68,3.6,5.8,37,0.00,CLR,,0.00,WeatherDisplay:10.37,2016-07-29 13:04:00,
2016-07-29 09:09:00,72.9,45.1,30.00,ENE,68,5.4,6.9,37,0.00,CLR,,0.00,WeatherDisplay:10.37,2016-07-29 13:09:00,
2016-07-29 09:14:00,73.4,45.5,30.00,ENE,68,3.1,4.6,37,0.00,CLR,,0.00,WeatherDisplay:10.37,2016-07-29 13:14:00,
2016-07-29 09:19:00,73.9,46.0,30.00,NNE,22,3.6,5.8,37,0.00,CLR,,0.00,WeatherDisplay:10.37,2016-07-29 13:19:00,
2016-07-29 09:24:00,74.5,45.8,29.97,ENE,68,5.6,5.8,36,0.00,CLR,,0.00,WeatherDisplay:10.37,2016-07-29 13:24:00,
2016-07-29 09:29:00,75.2,45.7,29.97,NNE,22,2.9,5.8,35,0.00,CLR,,0.00,WeatherDisplay:10.37,2016-07-29 13:29:00,
2016-07-29 09:34:00,75.4,45.8,29.97,ENE,68,2.4,6.0,35,0.00,CLR,,0.00,WeatherDisplay:10.37,2016-07-29 13:34:00,
2016-07-29 09:39:00,75.7,45.4,29.97,NNE,22,3.3,4.6,34,0.00,CLR,,0.00,WeatherDisplay:10.37,2016-07-29 13:39:00,
2016-07-29 09:44:00,76.3,45.8,29.97,ENE,68,2.6,3.5,34,0.00,CLR,,0.00,WeatherDisplay:10.37,2016-07-29 13:44:00,
2016-07-29 09:49:00,77.0,45.7,29.97,ENE,68,5.6,6.9,33,0.00,CLR,,0.00,WeatherDisplay:10.37,2016-07-29 13:49:00,